Home > Weather > Apeldoorn > Past weeks

Flag for Netherlands Weather for the Past 2 Weeks in Apeldoorn, Netherlands

Now
36 °F

Passing clouds.


Feels Like: 29 °F
Forecast: 33 / 42 °F
Wind: 9 mph from Southwest

Location: Deelen

Current Time: Feb 11, 2016 at 4:44:12 AM

Latest Report: Feb 11, 2016 at 3:55 AM


Visibility: N/A

Pressure: 29.56 "Hg

Humidity: 87%

Dew point: 32 °F

Location of ApeldoornLocation

Historic Weather in Apeldoorn — Graph

°F

Apeldoorn Temperature Yesterday

Maximum temperature yesterday: 46 °F (at 2:25 PM)
Minimum temperature yesterday: 32 °F (at 5:25 AM)
Average temperature yesterday: 39 °F

High & Low Weather Summary for the Past Weeks

 TemperatureHumidityPressure
High54 °F (Jan 27, 2:55 PM)100% (Jan 27, 8:55 AM)30.27 "Hg (Jan 27, 8:55 AM)
Low32 °F (Feb 10, 5:25 AM)62% (Jan 28, 2:25 PM)28.88 "Hg (Feb 9, 3:25 PM)
Average44 °F86%29.77 "Hg
* Reported Jan 27 3:25 AM — Feb 11 3:55 AM, Apeldoorn, Weather by CustomWeather, © 2016

Note: Actual official high and low records may vary slightly from our data, if they occured in-between our weather recording intervals... More about our weather records

Advertising

Apeldoorn Weather History for the Previous 24 Hours

 ConditionsComfort  
Time TempWeatherWind HumidityBarometerVisibility
3:55 AM
Thu, Feb 11
36 °FPassing clouds.9 mph87%29.56 "HgN/A
2:55 AM36 °FPassing clouds.6 mph87%29.56 "HgN/A
2:25 AM36 °FPassing clouds.5 mph93%29.56 "HgN/A
1:55 AM36 °FPassing clouds.6 mph93%29.56 "HgN/A
1:25 AM39 °FPartly cloudy.8 mph87%29.53 "HgN/A
12:55 AM39 °FMostly cloudy.6 mph87%29.53 "HgN/A
11:55 PM
Wed, Feb 10
39 °FMostly cloudy.9 mph87%29.53 "HgN/A
11:25 PM39 °FPassing clouds.9 mph87%29.50 "HgN/A
10:55 PM37 °FPassing clouds.5 mph93%29.50 "HgN/A
10:25 PM39 °FMostly cloudy.7 mph93%29.50 "HgN/A
9:55 PM39 °FMostly cloudy.8 mph87%29.47 "HgN/A
9:25 PM37 °FPartly cloudy.8 mph93%29.47 "HgN/A
8:55 PM39 °FPartly cloudy.7 mph87%29.47 "HgN/A
8:25 PM39 °FPassing clouds.7 mph87%29.45 "HgN/A
7:55 PM39 °FPartly cloudy.7 mph87%29.45 "HgN/A
7:25 PM39 °FPartly cloudy.7 mph93%29.42 "HgN/A
6:55 PM39 °FPassing clouds.7 mph87%29.42 "HgN/A
6:25 PM41 °FPartly cloudy.9 mph87%29.39 "HgN/A
5:55 PM41 °FPartly cloudy.8 mph87%29.39 "HgN/A
5:25 PM41 °FMostly cloudy.8 mph93%29.36 "HgN/A
4:55 PM41 °FPartly sunny.8 mph93%29.36 "HgN/A
4:25 PM41 °FLight rain. Broken clouds.7 mph93%29.33 "HgN/A
3:55 PM41 °FDrizzle. Broken clouds.13 mph93%29.33 "HgN/A
3:25 PM43 °FSprinkles. Mostly cloudy.13 mph87%29.30 "Hg6 mi
2:55 PM45 °FMore clouds than sun.15 mph76%29.30 "HgN/A
2:25 PM46 °FBroken clouds.12 mph76%29.30 "HgN/A
1:55 PM45 °FPartly sunny.10 mph81%29.27 "HgN/A
1:25 PM45 °FPartly sunny.14 mph76%29.27 "HgN/A
12:55 PM43 °FBroken clouds.13 mph87%29.27 "HgN/A
12:25 PM43 °FPartly sunny.12 mph87%29.27 "HgN/A
11:55 AM41 °FBroken clouds.13 mph93%29.27 "HgN/A
11:25 AM41 °FBroken clouds.13 mph93%29.27 "HgN/A
10:55 AM41 °FBroken clouds.14 mph87%29.24 "HgN/A
10:25 AM39 °FDrizzle. Partly sunny.10 mph93%29.24 "Hg4 mi
9:55 AM39 °FFog.10 mph93%29.24 "Hg5 mi
9:25 AM37 °FFog.13 mph93%29.21 "Hg5 mi
8:55 AM37 °FFog.10 mph93%29.21 "Hg4 mi
8:25 AM36 °FFog.9 mph100%29.21 "Hg3 mi
7:55 AM36 °FFog.8 mph93%29.21 "Hg3 mi
7:25 AM34 °FFog.8 mph100%29.21 "Hg4 mi
6:55 AM34 °FFog.8 mph93%29.18 "Hg4 mi
6:25 AM32 °FLight snow. Partly cloudy.9 mph100%29.18 "Hg4 mi
5:55 AM34 °FLight rain. Partly cloudy.9 mph93%29.18 "Hg2 mi
5:25 AM32 °FLight snow. Partly cloudy.10 mph100%29.18 "Hg2 mi
4:55 AM34 °FLight rain. Passing clouds.14 mph93%29.18 "Hg2 mi
4:25 AM36 °FLight rain. Partly cloudy.14 mph93%29.18 "Hg3 mi
Weather by CustomWeather, © 2016

See weather overviewHow to use our weather pages